EW7235 Weather Reports


Display with metric or nautical units.
time (UTC)temp
F
wind
direction
speed
MPH
gust
MPH
rain 1hr
in
rain 24hr
in
rain mn
in
humidity
%
barometer
mb
20260906202535 87 202 8.0 18.0 0.00 0.65 0.65 54 1015.5
20260906202037 86 161 9.0 21.0 0.00 0.65 0.65 54 1015.5
20260906201606 86 222 11.0 21.0 0.00 0.65 0.65 53 1015.6
20260906201035 87 167 13.0 21.0 0.00 0.65 0.65 53 1015.7
20260906200537 87 155 10.0 21.0 0.00 0.65 0.65 54 1015.7
20260906200056 86 200 8.0 16.0 0.00 0.65 0.65 56 1015.7
20260906195534 86 212 9.0 15.0 0.00 0.65 0.65 58 1015.8
20260906195036 86 195 8.0 15.0 0.00 0.65 0.65 57 1015.8
20260906194601 86 196 9.0 13.0 0.00 0.65 0.65 54 1015.9
20260906194035 86 200 9.0 13.0 0.00 0.65 0.65 56 1015.9
20260906193536 86 191 8.0 13.0 0.00 0.65 0.65 57 1016.0
20260906193059 86 157 7.0 17.0 0.00 0.65 0.65 57 1016.0
20260906192535 85 186 8.0 18.0 0.00 0.65 0.65 55 1016.0
20260906192036 86 184 11.0 18.0 0.00 0.65 0.65 56 1016.1
20260906191555 85 202 7.0 17.0 0.00 0.65 0.65 58 1016.0
20260906191037 85 187 10.0 17.0 0.00 0.65 0.65 57 1016.1
20260906190539 85 165 10.0 16.0 0.00 0.65 0.65 58 1016.2
20260906185542 84 203 10.0 18.0 0.00 0.65 0.65 58 1016.3
20260906185037 84 193 9.0 18.0 0.00 0.65 0.65 58 1016.3
20260906184602 84 210 9.0 21.0 0.00 0.65 0.65 57 1016.4
20260906184035 84 182 9.0 21.0 0.00 0.65 0.65 59 1016.4
20260906183535 84 183 13.0 21.0 0.00 0.65 0.65 58 1016.4
20260906183058 83 193 10.0 18.0 0.00 0.65 0.65 60 1016.4
20260906182536 83 186 10.0 18.0 0.00 0.65 0.65 61 1016.5
20260906182035 83 211 9.0 19.0 0.00 0.65 0.65 63 1016.5
20260906181600 83 180 13.0 19.0 0.00 0.65 0.65 61 1016.7
20260906181036 83 207 12.0 21.0 0.00 0.65 0.65 62 1016.7
20260906180616 82 187 10.0 21.0 0.00 0.65 0.65 65 1016.7
20260906180114 82 167 9.0 20.0 0.00 0.65 0.65 65 1016.8
20260906175534 81 210 11.0 20.0 0.00 0.65 0.65 65 1017.0
20260906175030 81 201 9.0 24.0 0.00 0.65 0.65 65 1017.0
20260906174559 81 192 11.0 24.0 0.00 0.65 0.65 65 1017.0
20260906174036 81 173 13.0 23.0 0.00 0.65 0.65 64 1017.3
20260906173530 81 205 12.0 22.0 0.00 0.65 0.65 66 1017.2
20260906173057 80 206 13.0 21.0 0.00 0.65 0.65 67 1017.2
20260906172530 80 208 10.0 20.0 0.00 0.65 0.65 65 1017.4
20260906172034 80 203 12.0 20.0 0.00 0.65 0.65 66 1017.5
20260906171553 80 139 9.0 22.0 0.00 0.65 0.65 67 1017.5
20260906171033 80 155 12.0 22.0 0.00 0.65 0.65 67 1017.4
20260906170535 80 184 12.0 23.0 0.00 0.65 0.65 67 1017.5
20260906170054 79 136 14.0 26.0 0.00 0.65 0.65 67 1017.7
20260906165535 79 175 15.0 26.0 0.00 0.65 0.65 67 1017.8
20260906165033 79 203 10.0 17.0 0.00 0.65 0.65 68 1017.7
20260906164551 79 161 8.0 16.0 0.00 0.65 0.65 69 1017.6
20260906164034 78 188 10.0 16.0 0.00 0.65 0.65 69 1017.6
20260906163536 78 190 9.0 15.0 0.00 0.65 0.65 70 1017.5
20260906163057 77 183 9.0 16.0 0.00 0.65 0.65 72 1017.6
20260906162536 77 172 10.0 16.0 0.00 0.65 0.65 72 1017.5
20260906162034 76 150 10.0 17.0 0.00 0.65 0.65 75 1017.6
20260906161551 75 193 8.0 17.0 0.00 0.65 0.65 76 1017.8
20260906161033 75 200 9.0 16.0 0.00 0.65 0.65 75 1017.7
20260906160534 76 200 9.0 14.0 0.00 0.65 0.65 78 1017.8
20260906155537 75 192 7.0 14.0 0.00 0.65 0.65 79 1017.6
20260906155033 75 205 8.0 14.0 0.00 0.65 0.65 79 1017.6
20260906154605 75 180 5.0 17.0 0.00 0.65 0.65 81 1017.5
20260906154032 74 196 8.0 17.0 0.00 0.65 0.65 80 1017.6
20260906153531 74 143 9.0 17.0 0.00 0.65 0.65 80 1017.5
20260906153056 74 188 7.0 17.0 0.00 0.65 0.65 82 1017.6
20260906152532 73 129 10.0 16.0 0.00 0.65 0.65 83 1017.6
20260906152031 73 185 7.0 14.0 0.00 0.65 0.65 83 1017.4
20260906151553 72 188 9.0 16.0 0.00 0.65 0.65 83 1017.2
20260906151030 72 197 8.0 16.0 0.00 0.65 0.65 84 1017.3
20260906150534 72 200 10.0 15.0 0.00 0.65 0.65 84 1017.5
20260906150105 72 148 7.0 15.0 0.00 0.65 0.65 85 1017.5
20260906145530 72 144 9.0 15.0 0.00 0.65 0.65 85 1017.5
20260906145030 71 159 10.0 14.0 0.00 0.65 0.65 86 1017.3
20260906144554 70 175 7.0 16.0 0.00 0.65 0.65 87 1017.4
20260906144034 70 168 10.0 16.0 0.00 0.65 0.65 86 1017.4
20260906143534 70 118 11.0 16.0 0.00 0.65 0.65 86 1017.3
20260906143107 70 130 10.0 15.0 0.00 0.65 0.65 87 1017.2
20260906142535 70 108 10.0 16.0 0.00 0.65 0.65 87 1017.2
20260906142035 70 124 11.0 16.0 0.00 0.65 0.65 87 1017.2
20260906141601 69 115 11.0 16.0 0.00 0.65 0.65 87 1017.0
20260906141030 69 109 10.0 13.0 0.00 0.65 0.65 87 1017.1
20260906140534 68 101 9.0 12.0 0.00 0.65 0.65 87 1017.2
20260906140101 68 101 9.0 12.0 0.00 0.65 0.65 87 1017.1
20260906135533 67 82 8.0 11.0 0.00 0.65 0.65 86 1017.1
20260906135031 67 82 8.0 10.0 0.00 0.65 0.65 86 1017.2
20260906134552 66 101 7.0 10.0 0.00 0.65 0.65 86 1017.2
20260906134034 66 98 7.0 10.0 0.00 0.65 0.65 87 1017.3
20260906133533 66 94 6.0 8.0 0.00 0.65 0.65 87 1017.3
20260906133108 66 104 3.0 7.0 0.00 0.65 0.65 87 1017.4
20260906132535 66 101 5.0 9.0 0.00 0.65 0.65 87 1017.1
20260906132034 66 111 6.0 14.0 0.00 0.65 0.65 87 1017.0
20260906131604 67 90 7.0 17.0 0.00 0.65 0.65 87 1016.7
20260906131033 67 90 11.0 17.0 0.00 0.65 0.65 86 1016.5
20260906130533 67 93 10.0 15.0 0.00 0.65 0.65 86 1016.5
20260906125533 66 86 8.0 26.0 0.00 0.65 0.65 85 1016.8
20260906125034 66 83 18.0 26.0 0.00 0.65 0.65 83 1016.2
20260906124600 66 82 21.0 26.0 0.00 0.65 0.65 83 1015.1
20260906124035 66 86 13.0 22.0 0.00 0.65 0.65 83 1015.7
20260906123534 65 39 19.0 22.0 0.00 0.65 0.65 83 1016.1
20260906123102 65 11 9.0 24.0 0.00 0.65 0.65 82 1016.1
20260906122534 66 93 13.0 24.0 0.00 0.65 0.65 82 1015.6
20260906122030 65 111 18.0 23.0 0.00 0.65 0.65 82 1014.4
20260906121557 65 111 10.0 14.0 0.00 0.65 0.65 82 1016.1
20260906121035 65 143 5.0 8.0 0.00 0.65 0.65 82 1016.6
20260906120535 65 180 3.0 5.0 0.00 0.65 0.65 82 1016.7
20260906120126 65 224 3.0 5.0 0.00 0.65 0.65 82 1016.6
20260906115535 65 233 3.0 11.0 0.00 0.65 0.65 82 1016.4
20260906115037 65 219 4.0 14.0 0.00 0.65 0.65 82 1016.2
20260906114601 65 116 9.0 14.0 0.00 0.65 0.65 82 1015.9
20260906114035 65 102 9.0 14.0 0.00 0.65 0.65 82 1015.9
20260906113533 65 125 8.0 14.0 0.00 0.65 0.65 82 1016.1
20260906113057 65 105 9.0 14.0 0.00 0.65 0.65 82 1016.2
20260906112533 65 94 9.0 12.0 0.00 0.65 0.65 82 1016.1
20260906112033 65 130 4.0 11.0 0.00 0.65 0.65 82 1016.1
20260906111603 65 126 7.0 14.0 0.00 0.65 0.65 82 1016.0
20260906111035 65 116 8.0 15.0 0.00 0.65 0.65 82 1016.0
20260906110535 65 107 11.0 16.0 0.00 0.65 0.65 82 1015.6
20260906110053 64 132 12.0 16.0 0.00 0.65 0.65 82 1015.6
20260906105534 64 102 10.0 14.0 0.00 0.65 0.65 82 1015.6
20260906105038 64 113 9.0 15.0 0.00 0.65 0.65 82 1015.7
20260906104553 64 106 4.0 16.0 0.00 0.65 0.65 82 1015.7
20260906104034 64 83 9.0 29.0 0.00 0.65 0.65 82 1015.7
20260906103533 64 90 19.0 29.0 0.01 0.65 0.65 82 1015.2
20260906103052 64 109 22.0 33.0 0.02 0.65 0.65 82 1014.3
20260906102536 64 90 25.0 35.0 0.04 0.65 0.65 82 1014.9
20260906102034 64 104 22.0 37.0 0.07 0.65 0.65 82 1014.6
20260906101557 64 103 27.0 37.0 0.13 0.65 0.65 82 1014.2
20260906101037 64 85 26.0 34.0 0.30 0.65 0.65 82 1014.6
20260906100535 65 86 23.0 34.0 0.42 0.65 0.65 82 1015.2
20260906100059 65 82 27.0 34.0 0.45 0.65 0.65 82 1015.3
20260906095534 65 84 26.0 31.0 0.47 0.65 0.65 82 1015.4
20260906095034 65 78 23.0 28.0 0.49 0.65 0.65 82 1015.5
20260906094552 65 91 24.0 27.0 0.50 0.65 0.65 82 1015.9
20260906094033 64 64 19.0 22.0 0.50 0.65 0.65 82 1016.5
20260906093534 64 62 10.0 18.0 0.50 0.64 0.64 82 1017.1
20260906093100 64 84 15.0 18.0 0.49 0.63 0.63 82 1017.8
20260906092533 64 80 12.0 15.0 0.47 0.61 0.61 82 1018.1
20260906092033 64 60 10.0 12.0 0.44 0.58 0.58 82 1018.2
20260906091555 64 64 1.0 21.0 0.37 0.51 0.51 83 1019.0
20260906091034 64 321 10.0 21.0 0.20 0.34 0.34 83 1019.6
20260906090532 63 280 13.0 24.0 0.08 0.22 0.22 84 1019.4
20260906090057 64 315 15.0 24.0 0.06 0.19 0.19 85 1019.0
20260906085618 65 293 19.0 24.0 0.05 0.18 0.18 87 1018.3
20260906085035 66 299 18.0 24.0 0.03 0.16 0.16 87 1018.2
20260906084603 66 289 17.0 21.0 0.04 0.15 0.15 86 1018.3
20260906084035 66 298 15.0 21.0 0.08 0.15 0.15 86 1018.1
20260906083533 65 312 15.0 21.0 0.10 0.14 0.14 87 1017.7
20260906083126 64 333 16.0 24.0 0.12 0.14 0.14 83 1017.6
20260906082534 63 305 17.0 24.0 0.14 0.14 0.14 83 1017.9
20260906082035 63 307 17.0 26.0 0.14 0.14 0.14 83 1017.9
20260906081558 63 323 18.0 26.0 0.14 0.14 0.14 83 1018.0
20260906081034 63 297 20.0 30.0 0.14 0.14 0.14 83 1018.3
20260906080534 63 288 20.0 30.0 0.14 0.14 0.14 83 1018.3
20260906080056 63 292 21.0 30.0 0.13 0.13 0.13 83 1018.6
20260906075530 63 286 23.0 31.0 0.13 0.13 0.13 83 1018.7
20260906075034 63 289 22.0 32.0 0.13 0.13 0.13 83 1018.6
20260906074552 63 286 23.0 33.0 0.11 0.11 0.11 84 1018.7
20260906074033 63 280 21.0 40.0 0.07 0.07 0.07 84 1018.6
20260906073531 63 267 27.0 40.0 0.04 0.04 0.04 85 1018.7
20260906073052 64 264 32.0 40.0 0.02 0.02 0.02 85 1018.5
20260906072534 64 292 26.0 43.0 0.00 0.00 0.00 85 1018.4
20260906072032 64 277 28.0 43.0 0.00 0.00 0.00 87 1018.4
20260906071556 65 281 32.0 43.0 0.00 0.00 0.00 89 1018.3
20260906071035 67 281 25.0 52.0 0.00 0.00 0.00 87 1018.4
20260906070532 68 265 30.0 52.0 0.00 0.00 0.00 85 1018.6
20260906070053 70 263 31.0 52.0 0.00 0.00 0.00 79 1018.2
20260906065535 75 263 22.0 42.0 0.00 0.00 0.00 71 1018.1
20260906065034 77 340 2.0 5.0 0.00 0.00 0.00 79 1016.7
20260906064557 77 344 3.0 6.0 0.00 0.00 0.00 79 1016.4
20260906064034 77 300 4.0 6.0 0.00 0.00 0.00 79 1016.4
20260906063537 77 275 3.0 6.0 0.00 0.00 0.00 79 1016.4
20260906063050 77 0 1.0 6.0 0.00 0.00 0.00 79 1016.3
20260906062533 77 60 4.0 9.0 0.00 0.00 0.00 80 1016.0
20260906062034 77 26 4.0 9.0 0.00 0.00 0.00 81 1016.1
20260906061553 77 321 8.0 9.0 0.00 0.00 0.00 81 1016.2
20260906061035 77 275 2.0 10.0 0.00 0.00 0.00 81 1016.1
20260906060534 77 111 6.0 12.0 0.00 0.00 0.00 80 1015.9
20260906060058 77 109 8.0 12.0 0.00 0.00 0.00 80 1015.6
20260906055535 77 98 9.0 12.0 0.00 0.00 0.00 80 1015.6
20260906055032 77 98 9.0 12.0 0.00 0.00 0.00 81 1015.6
20260906054607 77 111 9.0 13.0 0.00 0.00 0.00 82 1015.7
20260906054031 77 94 10.0 13.0 0.00 0.00 0.00 83 1015.8
20260906053532 77 91 10.0 13.0 0.00 0.00 0.00 83 1015.8
20260906053059 77 87 9.0 13.0 0.00 0.00 0.00 83 1015.8
20260906052534 77 79 11.0 13.0 0.00 0.00 0.00 82 1015.9
20260906052032 77 80 7.0 10.0 0.00 0.00 0.00 82 1015.9
20260906051557 77 107 6.0 9.0 0.00 0.00 0.00 81 1015.9
20260906051032 78 112 6.0 11.0 0.00 0.00 0.00 81 1015.8
20260906050532 78 101 7.0 13.0 0.00 0.00 0.00 81 1015.5
20260906050106 78 103 9.0 14.0 0.00 0.00 0.00 81 1015.3
20260906045533 78 105 11.0 14.0 0.00 0.00 0.00 81 1015.1
20260906045035 78 110 9.0 12.0 0.00 0.00 0.00 81 1015.2
20260906044553 78 92 9.0 12.0 0.00 0.00 0.00 80 1015.3
20260906044034 78 110 6.0 14.0 0.00 0.00 0.00 79 1015.5
20260906043534 79 125 9.0 14.0 0.00 0.00 0.00 78 1015.6
20260906043048 79 123 8.0 13.0 0.00 0.00 0.00 77 1015.6
20260906042535 79 128 10.0 13.0 0.00 0.00 0.00 77 1015.6
20260906042035 80 132 8.0 14.0 0.00 0.00 0.00 76 1015.7
20260906041547 80 126 10.0 14.0 0.00 0.00 0.00 76 1015.8
20260906041035 80 109 10.0 15.0 0.00 0.00 0.00 76 1015.9
20260906040532 80 118 10.0 18.0 0.00 0.00 0.00 76 1015.9
20260906040103 80 114 11.0 18.0 0.00 0.00 0.00 76 1015.9
20260906035534 80 101 14.0 19.0 0.00 0.00 0.00 76 1015.8
20260906035034 80 84 13.0 19.0 0.00 0.00 0.00 77 1015.7
20260906034555 79 107 12.0 16.0 0.00 0.00 0.00 78 1015.7
20260906034033 79 92 12.0 16.0 0.00 0.00 0.00 78 1015.7
20260906033533 79 86 12.0 15.0 0.00 0.00 0.00 78 1015.8
20260906033051 79 84 12.0 15.0 0.00 0.00 0.00 78 1015.7
20260906032532 79 87 11.0 15.0 0.00 0.00 0.00 78 1015.7
20260906032034 79 76 12.0 15.0 0.00 0.00 0.00 77 1015.7
20260906031609 79 87 10.0 12.0 0.00 0.00 0.00 77 1015.5
20260906031034 80 89 9.0 11.0 0.00 0.00 0.00 76 1015.6
20260906030532 80 98 9.0 16.0 0.00 0.00 0.00 76 1015.5
20260906030051 80 111 10.0 16.0 0.00 0.00 0.00 75 1015.4
20260906025533 80 101 12.0 18.0 0.00 0.00 0.00 75 1015.3
20260906025033 80 98 12.0 18.0 0.00 0.00 0.00 75 1015.1
20260906024606 80 107 14.0 18.0 0.00 0.00 0.00 74 1014.9
20260906024035 80 107 12.0 15.0 0.00 0.00 0.00 74 1014.9
20260906023532 80 107 11.0 15.0 0.00 0.00 0.00 73 1014.7
20260906023100 81 86 11.0 15.0 0.00 0.00 0.00 73 1014.8
20260906022533 81 110 11.0 17.0 0.00 0.00 0.00 72 1014.6
20260906022032 81 106 12.0 17.0 0.00 0.00 0.00 72 1014.6
20260906021556 81 103 12.0 17.0 0.00 0.00 0.00 72 1014.4
20260906021034 80 88 12.0 15.0 0.00 0.00 0.00 72 1014.6
20260906020535 80 92 11.0 14.0 0.00 0.00 0.00 72 1014.6
20260906020049 80 99 11.0 13.0 0.00 0.00 0.00 71 1014.6
20260906015534 81 96 10.0 11.0 0.00 0.00 0.00 71 1015.0
20260906015034 81 92 9.0 12.0 0.00 0.00 0.00 70 1015.1
20260906014548 81 92 9.0 12.0 0.00 0.00 0.00 70 1015.1
20260906014038 81 78 9.0 13.0 0.00 0.00 0.00 70 1015.1
20260906013535 81 86 10.0 13.0 0.00 0.00 0.00 69 1015.1
20260906013059 81 82 10.0 12.0 0.00 0.00 0.00 69 1015.1
20260906012533 81 86 9.0 12.0 0.00 0.00 0.00 68 1015.1
20260906012034 82 84 9.0 13.0 0.00 0.00 0.00 68 1015.1
20260906011550 82 92 9.0 14.0 0.00 0.00 0.00 67 1015.1
20260906011036 82 88 10.0 15.0 0.00 0.00 0.00 66 1015.0
20260906010534 83 84 11.0 16.0 0.00 0.00 0.00 66 1015.0
20260906010100 83 101 11.0 17.0 0.00 0.00 0.00 65 1015.2
20260906005532 83 99 13.0 17.0 0.00 0.00 0.00 65 1015.2
20260906005032 83 92 12.0 17.0 0.00 0.00 0.00 64 1015.1
20260906004554 83 92 13.0 17.0 0.00 0.00 0.00 63 1015.1
20260906004033 84 84 12.0 16.0 0.00 0.00 0.00 62 1015.2
20260906003535 84 91 12.0 19.0 0.00 0.00 0.00 61 1015.1
20260906003050 84 78 13.0 21.0 0.00 0.00 0.00 60 1015.3
20260906002533 85 85 16.0 21.0 0.00 0.00 0.00 59 1015.1
20260906002034 85 88 16.0 21.0 0.00 0.00 0.00 58 1014.9
20260906001558 85 82 17.0 21.0 0.00 0.00 0.00 57 1014.7
20260906001032 86 86 17.0 22.0 0.00 0.00 0.00 56 1014.7
20260906000532 86 88 16.0 22.0 0.00 0.00 0.00 55 1014.7
20260906000108 86 94 17.0 22.0 0.00 0.00 0.00 54 1014.7
20260905235534 87 109 14.0 21.0 0.00 0.00 0.00 53 1014.6
20260905235033 87 102 17.0 23.0 0.00 0.00 0.00 53 1014.7
20260905234559 87 101 19.0 23.0 0.00 0.00 0.00 52 1014.6
20260905234035 87 101 18.0 24.0 0.00 0.00 0.00 52 1014.6
20260905233537 87 93 17.0 26.0 0.00 0.00 0.00 51 1014.6
20260905233052 87 103 20.0 27.0 0.00 0.00 0.00 50 1014.5
20260905232533 88 109 21.0 27.0 0.00 0.00 0.00 49 1014.4
20260905232034 88 101 19.0 29.0 0.00 0.00 0.00 49 1014.4
20260905231558 88 98 21.0 29.0 0.00 0.00 0.00 49 1014.2
20260905231032 89 101 21.0 28.0 0.00 0.00 0.00 49 1014.2
20260905230532 89 83 23.0 28.0 0.00 0.00 0.00 49 1014.0
20260905230052 89 110 18.0 27.0 0.00 0.00 0.00 48 1013.9
20260905225537 89 110 20.0 28.0 0.00 0.00 0.00 48 1014.0
20260905225039 89 90 20.0 32.0 0.00 0.00 0.00 47 1013.9
20260905224549 89 105 19.0 32.0 0.00 0.00 0.00 47 1014.0
20260905224034 89 108 25.0 32.0 0.00 0.00 0.00 49 1014.0
20260905223534 89 97 22.0 31.0 0.00 0.00 0.00 49 1013.8
20260905223058 89 113 24.0 31.0 0.00 0.00 0.00 50 1013.6
20260905222534 89 98 26.0 31.0 0.00 0.00 0.00 51 1013.5
20260905222032 89 98 25.0 35.0 0.00 0.00 0.00 50 1013.6
20260905221557 89 96 23.0 35.0 0.00 0.00 0.00 50 1013.8
20260905221034 89 91 26.0 33.0 0.00 0.00 0.00 52 1013.6
20260905220532 89 101 24.0 33.0 0.00 0.00 0.00 53 1013.7
20260905220052 89 103 26.0 32.0 0.00 0.00 0.00 53 1013.8
20260905215533 89 86 23.0 29.0 0.00 0.00 0.00 52 1013.8
20260905215032 89 97 23.0 30.0 0.00 0.00 0.00 51 1014.0
20260905214557 90 98 20.0 32.0 0.00 0.00 0.00 51 1014.0
20260905214034 89 98 20.0 32.0 0.00 0.00 0.00 51 1014.0
20260905213532 89 94 25.0 35.0 0.00 0.00 0.00 50 1014.0
20260905213100 89 92 25.0 35.0 0.00 0.00 0.00 50 1014.3
20260905212534 89 99 21.0 30.0 0.00 0.00 0.00 49 1014.5
20260905212034 89 101 22.0 30.0 0.00 0.00 0.00 49 1014.4
20260905211606 89 103 22.0 30.0 0.00 0.00 0.00 48 1014.5
20260905211034 89 87 25.0 31.0 0.00 0.00 0.00 47 1014.6
20260905210532 89 96 23.0 31.0 0.00 0.00 0.00 48 1014.8
20260905210104 89 96 18.0 30.0 0.00 0.00 0.00 47 1015.0
20260905205532 88 86 19.0 31.0 0.00 0.00 0.00 49 1015.0
20260905205034 88 88 22.0 31.0 0.00 0.00 0.00 50 1015.1
20260905204603 88 94 21.0 28.0 0.00 0.00 0.00 50 1015.2
20260905204032 88 96 21.0 28.0 0.00 0.00 0.00 50 1015.2
20260905203537 88 102 21.0 30.0 0.00 0.00 0.00 51 1015.4
20260905203101 87 98 22.0 30.0 0.00 0.00 0.00 52 1015.5